Regional Weather Roundup
Issued by NWS

Home | Current Version | Previous Version | Graphics & Text | Print | Product List | Glossary On
Versions: 1 2 3 4 5 6 7 8 9 10 11 12 13 14 15 16 17 18 19 20 21 22 23 24 25 26 27 28 29 30 31 32 33 34 35 36 37 38 39 40 41 42 43 44 45 46 47 48 49 50
000
ASUS43 KDMX 112101
RWRIA

WEATHER ROUNDUP FOR IOWA
NATIONAL WEATHER SERVICE DES MOINES IA
300 PM CST MON DEC 11 2017

NOTE: "FAIR" INDICATES FEW OR NO CLOUDS BELOW 12,000 FEET WITH NO
SIGNIFICANT WEATHER AND/OR OBSTRUCTIONS TO VISIBILITY.

* - THESE STATIONS ARE NOT NWS STATIONS...THUS NOT UNDER NWS
QUALITY CONTROL.  THEY ALSO DO NOT REPORT WEATHER SUCH
AS PRECIPITATION OR FOG.

IAZ001>003-012>014-020>022-031>034-043>046-112200-
   NORTHWEST IOWA

CITY           SKY/WX    TMP DP  RH WIND       PRES   REMARKS
CARROLL *      CLOUDY    39  30  70 NW32G41   29.97R WCI  27
CHEROKEE *     CLOUDY    35  28  76 N25G36    30.04R WCI  23
DENISON *      CLOUDY    39  30  70 N28G38    30.01R WCI  28
LE MARS *      CLOUDY    37  28  70 N22G37    30.08R WCI  27
ORANGE CITY *  CLOUDY    36  30  80 N18G30    30.05R WCI  25
SHELDON *      CLOUDY    32  27  80 N29G37    30.04R WCI  18
SIOUX CITY     CLOUDY    40  29  64 N30G41    30.06R WCI  28
SPENCER        CLOUDY    32  26  78 N28G43    30.02R WCI  18
STORM LAKE *   CLOUDY    34  27  75 N31G44    30.00R WCI  20
$$

IAZ055>058-069>071-079>083-090>094-112200-
   SOUTHWEST IOWA

CITY           SKY/WX    TMP DP  RH WIND       PRES   REMARKS
ATLANTIC *     CLOUDY    43  32  65 NW22G32   29.99R
AUDUBON *      CLOUDY    39  32  75 NW21G28   29.98R WCI  29
CLARINDA *     CLOUDY    46  34  61 N25G35      N/A
COUNCIL BLFS * CLOUDY    43  34  70 NW17G38   30.02R
CRESTON *      CLOUDY    43  32  65 NW33G39   29.96R
HARLAN  *      CLOUDY    41  34  75 N28G36    30.03R
LAMONI         LGT RAIN  42  34  73 NW28G37   29.93R
RED OAK *      CLOUDY    45  34  65 N18G29    30.01R
SHENANDOAH *   CLOUDY    46  32  57 NW20G29   30.03R
$$

IAZ047>049-059>061-072>074-084-112200-
   CENTRAL IOWA

CITY           SKY/WX    TMP DP  RH WIND       PRES   REMARKS
AMES           CLOUDY    40  33  76 NW23G43   29.90R WCI  30
ANKENY *       CLOUDY    41  32  70 NW26G40   29.91R
BOONE *        CLOUDY    39  32  75 NW28G33   29.90R WCI  28
CHARITON *     CLOUDY    43  32  65 NW30G38   29.89R
DES MOINES     LGT RAIN  42  32  67 NW20G35   29.91R
GRINNELL*      CLOUDY    40  33  76 NW24G32   29.84R WCI  30
KNOXVILLE *    CLOUDY    43  32  65 NW20G35   29.86R
MARSHALLTOWN   CLOUDY    39  34  82 NW32G43   29.84R WCI  27
NEWTON *       CLOUDY    41  32  70 NW28G37   29.85R
PELLA *        CLOUDY    42  32  68 NW28G37   29.86R
PERRY *        CLOUDY    40  30  69 NW17G31   29.94R WCI  31
$$

IAZ004>006-015-016-023>025-035-036-112200-
   NORTH CENTRAL IOWA

CITY           SKY/WX    TMP DP  RH WIND       PRES   REMARKS
ALGONA *       CLOUDY    34  34 100 NW26G38   29.94R WCI  21
CLARION *      CLOUDY    36  36 100 NW28G37   29.91R WCI  23
ESTHERVILLE    CLOUDY    30  28  92 NW30G41   29.98R WCI  15
FORT DODGE *   CLOUDY    36  30  79 N21G32    29.95R WCI  25
MASON CITY     CLOUDY    36  31  82 NW23G33   29.88R WCI  24
FOREST CITY *  CLOUDY    36  32  87 NW18G28   29.89R WCI  25
WEBSTER CITY * CLOUDY    37  32  81 NW33G43   29.90R WCI  24
IOWA FALLS *   CLOUDY    38  34  83 NW29G37   29.87R WCI  27
$$

IAZ007>011-017>019-026>030-037>042-050>054-066-112200-
   NORTHEAST IOWA

CITY           SKY/WX    TMP DP  RH WIND       PRES   REMARKS
CEDAR RAPIDS   LGT SNOW  33  32  96 NW13      29.78R FOG     WCI  24
CHARLES CITY * CLOUDY    36  36 100 NW22G28   29.83R WCI  24
CLINTON *      FLURRIES  35  30  82 NW15      29.74R WCI  25
DECORAH *      CLOUDY    34  32  93 NW16      29.78R WCI  23
DUBUQUE        HVY SNOW  31  30  96 NW10      29.75R VSB 1/4 WCI  22
MONTICELLO *   LGT SNOW  34  32  93 NW9G17    29.77R WCI  26
OELWEIN *      CLOUDY    36  36 100 NW20G25   29.79R WCI  25
WATERLOO       CLOUDY    36  32  85 NW25G37   29.81R WCI  24
$$

IAZ064-065-067-068-078-112200-
   EAST CENTRAL IOWA

CITY           SKY/WX    TMP DP  RH WIND       PRES   REMARKS
DAVENPORT      CLOUDY    39  27  62 NW18      29.76R WCI  30
IOWA CITY      LGT RAIN  40  32  73 NW22G29   29.81R WCI  30
MT. PLEASANT * CLOUDY    42  31  66 W26G35    29.79R
MUSCATINE *    CLOUDY    43  30  61 NW23G36   29.77R
QUAD CITIES    CLOUDY    42  27  55 NW17G25   29.72R
$$

IAZ062-063-075>077-085>089-095>099-112200-
   SOUTHEAST IOWA

CITY           SKY/WX    TMP DP  RH WIND       PRES   REMARKS
BURLINGTON     PTSUNNY   43  33  68 NW22G37   29.76R
FAIRFIELD *    CLOUDY    41  32  70 NW22G30   29.81R
FORT MADISON * CLOUDY    45  34  65 NW23G37   29.79R
KEOKUK *       CLOUDY    45  32  61 NW30G41   29.79R
OSKALOOSA *    CLOUDY    41  32  70 NW24G30   29.85R
OTTUMWA        CLOUDY    43  32  65 NW22G31   29.84R
WASHINGTON *   CLOUDY    39  34  81 NW25G35   29.81R WCI  28
$$

ABBREVIATIONS USED IN REMARKS
   TC - TEMPERATURES IN CELSIUS
  WCI - WIND CHILL INDEX
   HX - HEAT INDEX
  VSB - VISIBILITY
$$





USA.gov is the U.S. government's official web portal to all federal, state and local government web resources and services.